User: anonymous   Login
Location: Oshawa
(43.9000°N, 78.8670°W)
Time: 00:52:42
(UTC-05:00)
Language:

Iridium 98 - Orbit

View from above orbital plane
View from above orbital plane
View from above satellite
View from above satellite

Ground track
Ground track

The orbit data is extracted from the following two-line orbital elements,

1 27451U 02031B   17021.57243692  .00000130  00000-0  39420-4 0  9990
2 27451  86.3950  83.5274 0002132  93.7404  45.0210 14.34221640770289
Epoch (UTC): 21 January 2017 13:44:18
Eccentricity: 0.0002132
inclination: 86.3950°
perigee height: 776 km
apogee height: 779 km
right ascension of ascending node: 83.5274°
argument of perigee: 93.7404°
revolutions per day: 14.34221640
mean anomaly at epoch: 45.0210°
orbit number at epoch: 77028

The dashed part of the orbit path shows where the satellite is in the earth's shadow,  

DLR